[[{"header":{"parameterUnit":"m.s-1","parameterCategory":1,"la1":30.2991,"la2":30.254,"lo1":-89.0895,"lo2":-89.0444,"dy":0.0017,"dx":0.0017,"nx":28,"ny":28,"refTime":"2024-03-13T03:00:00:Z","depth":0,"parameterNumber":2,"parameterNumberName":"U-component_of_WINDS"},"data":[0,0,0,0,0,0,0,0,0,0,0,0,0,0,0,0,0,0,0,0,0,0,0,0,0,0,0,0,0,0,0,0,0,0,0,0,0,0,0,0,0,0,0,0,0,0,0,0,0,0,0,0,0,0,0,0,0,0,-3.0955,-3.0956,0,-3.1083,-3.1085,-3.1086,-3.1126,-3.1125,-3.1125,-3.1124,-3.1255,-3.1259,-3.1263,0,0,0,0,0,0,0,0,0,0,0,0,0,-3.0743,-3.0747,-3.0954,-3.0956,-3.0958,-3.1083,-3.1085,-3.1087,-3.1126,-3.1125,-3.1125,-3.1124,-3.1254,-3.1259,-3.1264,0,0,0,0,0,0,0,0,0,0,0,0,0,-3.085,-3.0748,-3.0954,-3.0993,-3.0997,-3.1083,-3.1085,-3.1087,-3.1126,-3.1125,-3.1124,-3.1124,-3.1252,-3.1258,-3.1264,-3.1321,0,0,-3.1283,-3.1286,0,0,0,0,0,0,0,0,-3.0843,-3.0857,-3.0985,-3.099,-3.0995,-3.1088,-3.1058,-3.1165,-3.1127,-3.1077,-3.1124,-3.1123,-3.12,-3.1211,-3.1237,-3.1327,-3.1333,-3.1284,-3.1287,-3.129,-3.1292,0,0,0,0,0,0,0,-3.0836,-3.0852,-3.1005,-3.0987,-3.0993,-3.1003,-3.1018,-3.1079,-3.1142,-3.1081,-3.1085,-3.1099,-3.1203,-3.1231,-3.124,-3.1334,-3.1283,-3.1289,-3.1293,-3.1295,-3.1478,-3.1479,0,0,0,0,0,0,-3.0822,-3.0846,-3.1001,-3.1009,-3.0916,-3.1008,-3.1024,-3.1059,-3.1142,-3.1154,-3.11,-3.1101,-3.1221,-3.1233,-3.1245,-3.1316,-3.129,-3.1296,-3.1299,-3.1477,-3.1478,-3.1479,0,0,0,0,0,0,-3.0817,-3.0836,-3.0996,-3.0928,-3.095,-3.1013,-3.1052,-3.1062,-3.109,-3.1156,-3.1167,-3.1117,-3.1221,-3.1236,-3.1302,-3.1321,-3.1298,-3.1304,-3.1475,-3.1477,-3.1479,-3.1459,0,0,0,0,0,0,-3.0811,-3.0834,-3.0856,-3.0929,-3.0953,-3.1051,-3.1053,-3.1065,-3.11,-3.1103,-3.1175,-3.1186,-3.1221,-3.1292,-3.1308,-3.1329,-3.1309,-3.1474,-3.1476,-3.1478,-3.1458,-3.146,-3.1461,0,0,0,0,0,-3.0804,-3.0845,-3.0856,-3.0875,-3.0982,-3.1052,-3.1066,-3.1105,-3.1102,-3.1124,-3.1167,-3.1183,-3.1317,-3.1299,-3.1316,-3.134,-3.1473,-3.1475,-3.1478,-3.1457,-3.1459,-3.1461,0,0,0,0,0,0,-3.0772,-3.0855,-3.0869,-3.0935,-3.0986,-3.1058,-3.1088,-3.1106,-3.1159,-3.1159,-3.1206,-3.1222,-3.1284,-3.1319,-3.1297,-3.1399,-3.1396,-3.1402,-3.1374,-3.1376,-3.1378,-3.1367,-3.1314,0,0,0,0,0,-3.0773,-3.0822,-3.0893,-3.0944,-3.0969,-3.1024,-3.1056,-3.1082,-3.1137,-3.1159,-3.1206,-3.1258,-3.1312,-3.1346,-3.14,-3.1464,-3.148,-3.1489,-3.1491,-3.1492,-3.1496,-3.1532,-3.1537,-3.1488,-3.1488,-3.1488,0,0,-3.0774,-3.0826,-3.0854,-3.0939,-3.0982,-3.1032,-3.1042,-3.1095,-3.1132,-3.1167,-3.1231,-3.1268,-3.133,-3.1394,-3.1426,-3.1425,-3.1513,-3.1495,-3.1495,-3.1499,-3.1536,-3.154,-3.1544,-3.149,-3.149,-3.1489,0,0,-3.0803,-3.0848,-3.0895,-3.0938,-3.1003,-3.1039,-3.1051,-3.1121,-3.1146,-3.1212,-3.1239,-3.1285,-3.1377,-3.142,-3.1453,-3.15,-3.1517,-3.1516,-3.1524,-3.1559,-3.1563,-3.1566,-3.1582,-3.1587,-3.1521,-3.1521,-3.1521,0,-3.0797,-3.0874,-3.0917,-3.0969,-3.1005,-3.104,-3.1088,-3.1128,-3.1206,-3.123,-3.123,-3.1346,-3.139,-3.1465,-3.1477,-3.1503,-3.1518,-3.1507,-3.1559,-3.1563,-3.1567,-3.1582,-3.1588,-3.152,-3.152,-3.152,-3.152,0,-3.0863,-3.0916,-3.0947,-3.1022,-3.1062,-3.1112,-3.1163,-3.1198,-3.1222,-3.1259,-3.1325,-3.138,-3.1444,-3.1465,-3.1488,-3.1544,-3.1542,-3.1549,-3.1546,-3.157,-3.1585,-3.1592,-3.1519,-3.1519,-3.152,-3.152,0,0,-3.0874,-3.0973,-3.0983,-3.1018,-3.1093,-3.1135,-3.1187,-3.125,-3.1279,-3.1333,-3.1377,-3.1455,-3.1463,-3.1501,-3.153,-3.1561,-3.1594,-3.1565,-3.1567,-3.1567,-3.1658,-3.165,-3.1657,-3.1606,-3.1608,-3.1609,-3.1652,0,-3.0911,-3.1004,-3.1045,-3.112,-3.1169,-3.1204,-3.1249,-3.13,-3.1336,-3.1383,-3.1424,-3.1477,-3.1484,-3.1507,-3.154,-3.1583,-3.1612,-3.1581,-3.1647,-3.1649,-3.1629,-3.1665,-3.1657,-3.1695,-3.1659,-3.166,-3.166,0,-3.0966,-3.102,-3.11,-3.1169,-3.1191,-3.1231,-3.1293,-3.1338,-3.1397,-3.1421,-3.1464,-3.1492,-3.1548,-3.1543,-3.162,-3.1598,-3.1628,-3.1654,-3.1656,-3.1662,-3.1655,-3.1671,-3.1709,-3.1714,-3.1671,-3.167,-3.1669,0,-3.0964,-3.1057,-3.1117,-3.1146,-3.1228,-3.1255,-3.1291,-3.1349,-3.1384,-3.1439,-3.1463,-3.1523,-3.1556,-3.1602,-3.1645,-3.1638,-3.1719,-3.1717,-3.174,-3.1738,-3.1753,-3.1752,-3.1795,-3.1776,-3.1775,-3.1775,-3.1775,0,-3.1001,-3.1048,-3.1117,-3.1153,-3.1207,-3.1255,-3.1307,-3.1345,-3.1397,-3.1441,-3.1475,-3.1516,-3.1572,-3.162,-3.1655,-3.1714,-3.1729,-3.1749,-3.1758,-3.1746,-3.1743,-3.1765,-3.1762,-3.1777,-3.1777,-3.1776,-3.1776,0,-3.1007,-3.1055,-3.1122,-3.1195,-3.1215,-3.1251,-3.1314,-3.135,-3.1389,-3.1445,-3.1461,-3.1521,-3.158,-3.1629,-3.1706,-3.1729,-3.179,-3.1801,-3.177,-3.1774,-3.1794,-3.1791,-3.1851,-3.1861,-3.1836,-3.1836,-3.1836,0,-3.1026,-3.1063,-3.114,-3.1172,-3.1207,-3.1259,-3.1296,-3.1345,-3.1382,-3.1452,-3.148,-3.1542,-3.1593,-3.1686,-3.1737,-3.1796,-3.1807,-3.1825,-3.1816,-3.1803,-3.1806,-3.1803,-3.1806,-3.1824,-3.1825,-3.1825,-3.1825,0,-3.1054,-3.1077,-3.1128,-3.1189,-3.1232,-3.1282,-3.1333,-3.1358,-3.1416,-3.1456,-3.1516,-3.1556,-3.1636,-3.1696,-3.1761,-3.1798,-3.1821,-3.1827,-3.1835,-3.1822,-3.1803,-3.1813,-3.177,-3.1825,-3.1825,-3.1825,-3.1825,-3.1825,-3.1067,-3.1101,-3.1161,-3.1218,-3.1261,-3.1308,-3.1346,-3.139,-3.1441,-3.1509,-3.1535,-3.1597,-3.1656,-3.1746,-3.1783,-3.1833,-3.1835,-3.1847,-3.185,-3.1852,-3.185,-3.1796,-3.1845,-3.1845,-3.1845,-3.1845,-3.1845,0,-3.1096,-3.1136,-3.1188,-3.1258,-3.1303,-3.1322,-3.1379,-3.1415,-3.1469,-3.1522,-3.1573,-3.1642,-3.1702,-3.1758,-3.182,-3.1848,-3.186,-3.1863,-3.186,-3.1869,-3.1845,-3.1831,-3.1852,-3.1852,-3.1852,-3.1852,-3.1852,-3.1852,-3.1116,-3.1175,-3.1205,-3.1286,-3.1327,-3.1387,-3.1419,-3.1462,-3.1505,-3.1581,-3.1631,-3.1667,-3.1721,-3.1788,-3.1843,-3.1858,-3.1879,-3.1878,-3.1896,-3.1872,-3.187,-3.1869,-3.1856,-3.1883,-3.1883,-3.1916,-3.1916,-3.1916]},{"header":{"parameterUnit":"m.s-1","parameterCategory":1,"la1":30.2991,"la2":30.254,"lo1":-89.0895,"lo2":-89.0444,"dy":0.0017,"dx":0.0017,"nx":28,"ny":28,"refTime":"2024-03-13T03:00:00:Z","depth":0,"parameterNumber":3,"parameterNumberName":"V-component_of_WINDS"},"data":[0,0,0,0,0,0,0,0,0,0,0,0,0,0,0,0,0,0,0,0,0,0,0,0,0,0,0,0,0,0,0,0,0,0,0,0,0,0,0,0,0,0,0,0,0,0,0,0,0,0,0,0,0,0,0,0,0,0,2.2366,2.2367,0,2.247,2.2471,2.2472,2.2516,2.2516,2.2516,2.2516,2.2621,2.2624,2.2627,0,0,0,0,0,0,0,0,0,0,0,0,0,2.2206,2.2208,2.2366,2.2367,2.2368,2.247,2.2471,2.2472,2.2516,2.2516,2.2516,2.2516,2.262,2.2624,2.2627,0,0,0,0,0,0,0,0,0,0,0,0,0,2.2289,2.2209,2.2365,2.2402,2.2407,2.2469,2.2471,2.2473,2.2516,2.2516,2.2516,2.2516,2.2619,2.2623,2.2628,2.2661,0,0,2.2641,2.2643,0,0,0,0,0,0,0,0,2.2284,2.2295,2.2396,2.24,2.2405,2.248,2.2453,2.2536,2.2516,2.2475,2.2516,2.2515,2.2574,2.2582,2.2602,2.2666,2.267,2.2642,2.2644,2.2646,2.2647,0,0,0,0,0,0,0,2.2278,2.2291,2.2407,2.2397,2.2403,2.2414,2.2426,2.2469,2.2525,2.2478,2.2482,2.2494,2.2577,2.2598,2.2605,2.2672,2.2641,2.2645,2.2648,2.265,2.277,2.277,0,0,0,0,0,0,2.2266,2.2285,2.2404,2.241,2.2343,2.2417,2.243,2.2456,2.2524,2.2534,2.2494,2.2495,2.259,2.26,2.2609,2.2654,2.2646,2.265,2.2653,2.2769,2.277,2.277,0,0,0,0,0,0,2.2263,2.2277,2.2399,2.2349,2.2365,2.242,2.2449,2.2458,2.248,2.2536,2.2546,2.2505,2.2591,2.2603,2.2648,2.2658,2.2652,2.2656,2.2768,2.2769,2.277,2.2742,0,0,0,0,0,0,2.2258,2.2275,2.2288,2.2349,2.2368,2.2436,2.245,2.246,2.2487,2.249,2.2549,2.2559,2.2591,2.2641,2.2653,2.2664,2.266,2.2768,2.2769,2.277,2.2743,2.2742,2.2742,0,0,0,0,0,2.2252,2.2275,2.2288,2.2302,2.2385,2.2437,2.2448,2.2485,2.2488,2.2502,2.2538,2.2557,2.2655,2.2645,2.2659,2.2671,2.2767,2.2769,2.277,2.2743,2.2742,2.2742,0,0,0,0,0,0,2.2213,2.2284,2.2299,2.2342,2.2383,2.2444,2.2463,2.2483,2.2523,2.2524,2.2568,2.2581,2.2623,2.2652,2.264,2.2708,2.2713,2.2717,2.2688,2.2688,2.2687,2.268,2.2664,0,0,0,0,0,2.221,2.2246,2.2306,2.2338,2.2358,2.2407,2.2431,2.2456,2.25,2.2518,2.2557,2.2599,2.264,2.2665,2.2705,2.2747,2.2761,2.2763,2.2762,2.2761,2.2764,2.279,2.2792,2.2774,2.2774,2.2774,0,0,2.2203,2.2246,2.2266,2.2332,2.2367,2.2404,2.2421,2.2459,2.2487,2.2523,2.2569,2.26,2.2649,2.2694,2.2715,2.2719,2.2772,2.2763,2.2762,2.2765,2.2791,2.2793,2.2794,2.2775,2.2775,2.2774,0,0,2.221,2.2245,2.2277,2.2312,2.2365,2.2397,2.2405,2.2463,2.2486,2.2532,2.2561,2.2595,2.2663,2.2698,2.2725,2.2747,2.2766,2.2758,2.2756,2.278,2.2782,2.2783,2.2792,2.2795,2.2761,2.2761,2.2761,0,2.2194,2.2251,2.2291,2.2328,2.2357,2.2392,2.2425,2.2457,2.252,2.2539,2.2543,2.2631,2.2666,2.272,2.2726,2.2745,2.2756,2.2752,2.2778,2.278,2.2782,2.2791,2.2794,2.276,2.276,2.276,2.276,0,2.2231,2.227,2.2289,2.235,2.2381,2.2416,2.2461,2.2488,2.2511,2.2543,2.2591,2.2636,2.2686,2.2701,2.2723,2.2758,2.2759,2.277,2.2775,2.2782,2.2791,2.2795,2.2758,2.2758,2.2759,2.2759,0,0,2.2214,2.2298,2.2305,2.2334,2.2395,2.2427,2.2464,2.2514,2.2536,2.2579,2.2612,2.267,2.2681,2.2711,2.2738,2.2759,2.2776,2.2768,2.277,2.2768,2.2818,2.281,2.2814,2.2789,2.279,2.279,2.2815,0,2.223,2.2298,2.2336,2.2388,2.2426,2.2461,2.2493,2.2535,2.2566,2.2603,2.2638,2.2679,2.2689,2.2708,2.2731,2.2769,2.2786,2.2767,2.282,2.2821,2.2807,2.2818,2.281,2.283,2.2818,2.2819,2.2819,0,2.2257,2.23,2.2356,2.2416,2.2433,2.2461,2.2511,2.2546,2.2594,2.2616,2.265,2.2677,2.2719,2.2721,2.2779,2.2765,2.2789,2.2811,2.2813,2.2819,2.2821,2.2826,2.2838,2.2841,2.2825,2.2825,2.2824,0,2.2241,2.2313,2.2357,2.238,2.245,2.2469,2.2499,2.2547,2.2576,2.262,2.2639,2.2687,2.2713,2.2749,2.2789,2.2787,2.2843,2.2849,2.2863,2.2862,2.2873,2.2872,2.2889,2.2887,2.2887,2.2887,2.2887,0,2.2254,2.2288,2.235,2.2377,2.2416,2.246,2.2497,2.253,2.2573,2.2607,2.264,2.2671,2.2721,2.2759,2.279,2.2834,2.2845,2.2864,2.2872,2.2862,2.286,2.2878,2.2878,2.2888,2.2888,2.2888,2.2888,0,2.2243,2.2286,2.2336,2.2399,2.2415,2.2441,2.2495,2.2523,2.2557,2.26,2.2612,2.2665,2.2712,2.2755,2.2816,2.2837,2.2882,2.2892,2.2866,2.287,2.2883,2.2881,2.2913,2.292,2.2912,2.2912,2.2912,0,2.2249,2.2275,2.2341,2.2367,2.2397,2.2437,2.2467,2.2511,2.2541,2.2599,2.262,2.2669,2.2711,2.2784,2.2828,2.2875,2.2887,2.2895,2.2894,2.2884,2.2889,2.2887,2.289,2.2894,2.2894,2.2894,2.2894,0,2.2255,2.2276,2.2317,2.2367,2.2402,2.2443,2.2485,2.2504,2.2557,2.2588,2.2637,2.2669,2.2733,2.2782,2.2835,2.2866,2.2889,2.2894,2.29,2.289,2.2874,2.2884,2.2865,2.2893,2.2893,2.2893,2.2893,2.2893,2.2253,2.2279,2.233,2.2376,2.2413,2.2452,2.2482,2.252,2.2561,2.2617,2.2641,2.269,2.274,2.2814,2.2845,2.2884,2.2889,2.2898,2.29,2.2901,2.29,2.2868,2.2894,2.2894,2.2894,2.2894,2.2894,0,2.2262,2.2297,2.2339,2.2398,2.2434,2.2453,2.2501,2.2531,2.2574,2.2618,2.2659,2.2716,2.2764,2.2812,2.2863,2.2885,2.2897,2.2897,2.2896,2.2903,2.2892,2.2882,2.2887,2.2887,2.2887,2.2887,2.2887,2.2887,2.2271,2.2317,2.2344,2.2408,2.2443,2.2492,2.2518,2.2555,2.2591,2.2653,2.2693,2.2725,2.2772,2.2826,2.2871,2.2885,2.2902,2.2899,2.2915,2.2904,2.2904,2.2904,2.2895,2.2902,2.2902,2.2924,2.2924,2.2924]}]]